Location: Brno
(49.2000°N, 16.6330°E)
Time: 07:22:06
(UTC+02:00)

Cosmos 332 Rocket - Visible Passes

Search period start: 21 October 2014 00:00
Search period end: 30 October 2014 23:00
Orbit: 684 x 707 km, 74.0° (Epoch: 19 October)

Date Brightness Start Highest point End Pass type
(mag) Time Alt. Az. Time Alt. Az. Time Alt. Az.
21 Oct 4.4 19:01:31 10° NNW 19:06:24 63° WSW 19:11:14 10° S visible
22 Oct 6.3 19:44:01 10° NW 19:47:49 23° W 19:51:35 10° SSW visible
23 Oct 4.7 18:44:38 10° NNW 18:49:28 56° WSW 18:54:15 10° S visible
24 Oct 6.6 19:27:17 10° NW 19:30:49 20° W 19:34:21 10° SW visible
25 Oct 5.0 18:27:45 10° NNW 18:32:31 49° WSW 18:37:14 10° S visible
26 Oct 6.9 18:10:34 10° NW 18:13:50 18° W 18:17:04 10° SW visible
27 Oct 5.3 17:10:53 10° NW 17:15:33 44° WSW 17:20:11 10° S visible
28 Oct 6.4 05:58:57 10° SSE 06:03:01 27° E 06:07:06 10° NE visible
28 Oct 7.2 17:53:54 10° WNW 17:56:49 16° W 17:59:44 10° SW visible
29 Oct 7.7 05:04:07 10° E 05:04:55 10° E 05:05:43 10° E visible
30 Oct 6.1 05:41:48 10° SSE 05:46:01 30° ESE 05:50:17 10° NE visible
30 Oct 7.2 17:37:18 10° WNW 17:39:48 14° W 17:42:18 10° SW visible
